Погода в Великой Писаревке

Украина / Сумская область     50°25′25″N   35°28′53″E
темп.,
°C
ветер,
м/с
пор.,
м/с
влажн.,
%
обл.,
%
осадки,
мм/ч
давл.,
гПа
погр.,
м
27 ноября, сб
сб2723:000ююв51294100 0.0 1014290
02:00+1юв61494100 0.0 1011359
05:00+1юв71790100 0.0 1009462
08:00+3ююв91889100 0.2 1007665
11:00+4ююв91993100 3.2 1004749
14:00+6ю81793100 3.9 1003640
17:00+7ю61296100 0.1 1003403
20:00+6ю4996100 0.1 1004233
28 ноября, вс
вс2823:00+6ю3996100 0.0 1005208
02:00+5ююз34965 0.0 100659
05:00+4ююз229711 0.0 100625
08:00+4ююз239963 0.0 100852
11:00+6ююз3591100 0.0 1008376
14:00+8ююв348368 0.0 1009198
17:00+6юв499215 0.0 1009149
20:00+6юв41292100 0.0 1008229
29 ноября, пн
пн2923:00+7юв41094100 0.0 1007215
02:00+8юв41296100 0.4 1005364
05:00+8юв51297100 1.5 1002434
08:00+10ююв71497100 2.1 999610
11:00+10ю91589100 0.1 997795
14:00+10ююв61395100 0.6 994697
17:00+11ю61486100 0.1 991605
20:00+11ююз71592100 1.4 988598
30 ноября, вт
вт3023:00+9з101486100 3.6 988960
02:00+5з91478100 6.3 992982
05:00+3зюз101466100 0.0 9951139
08:00+3зюз812685 0.0 998989
11:00+3зюз9136491 0.0 10001126
14:00+3зюз9146332 0.0 9991162
17:00+2зюз61269100 0.0 1000781
20:00+1з51174100 0.0 1000590
1 декабря, ср
ср123:000зсз5117642 0.0 999638
02:00−1зсз4878100 0.0 1001545
05:00−1зсз51078100 0.0 1001616
08:00−2з510775 0.0 1003565
11:000з696870 0.0 1003824
14:000зюз51092100 0.3 1003689
17:00−1юз499686 0.6 1004606
20:00−1зюз499682 0.8 1005484